Wind_Speed
14 12 11 8 8 9 11 11 11 12 13 15 17 17 17 17 16 15 15 15 15 16 16 16 17 18 19 20 21 21 22 24 25 26 28 29 30 31 32 33 35 36 37 38
13 12 11 11 10 11 13 13 13 14 15 18 19 17 17 17 17 17 17 16 16 16 17 17 18 19 20 21 22 23 24 25 27 28 29 30 31 33 34 36 37 38 39 40
13 12 12 12 11 13 13 13 14 15 17 19 19 17 17 18 18 18 18 18 17 17 18 18 19 20 21 22 23 24 25 26 28 29 31 32 33 35 36 37 39 40 41 42
14 13 12 11 12 13 13 14 15 16 19 20 19 19 18 18 18 18 18 18 18 18 19 19 20 21 22 23 24 25 26 28 29 31 33 34 36 37 38 40 41 42 42 43
15 14 13 13 14 14 13 13 15 17 18 19 18 19 19 18 18 18 19 19 20 20 20 21 21 22 23 24 25 26 28 29 31 33 34 36 37 39 40 41 42 43 43 43
17 16 16 18 18 16 14 14 16 17 18 18 18 18 20 20 20 20 20 20 21 22 22 22 23 24 25 26 28 28 30 31 33 34 36 37 39 40 42 42 43 44 44 44
17 17 18 21 20 18 18 17 17 18 19 20 20 19 21 22 22 22 22 23 23 23 23 24 24 25 26 28 30 30 32 33 35 37 38 39 41 42 43 43 44 45 44 44
19 19 22 23 23 22 19 17 18 20 22 23 23 22 22 23 23 23 23 24 24 24 25 25 26 27 29 30 32 33 34 36 37 39 40 41 43 44 45 45 46 45 44 42
22 22 24 25 24 24 21 21 21 23 25 25 25 24 24 25 25 24 25 25 25 25 26 27 28 29 31 32 34 36 36 38 40 40 42 43 45 46 46 46 45 44 44 42
23 24 25 26 26 23 23 24 25 26 26 26 26 25 26 26 26 26 26 27 27 27 27 28 30 31 33 35 36 38 38 39 41 42 43 44 46 47 47 46 45 44 43 42
27 26 25 27 25 26 26 26 27 27 27 26 26 27 28 28 28 28 29 29 29 29 30 32 32 34 35 37 38 39 40 42 43 45 45 46 47 48 48 47 46 44 43 41
28 27 26 26 26 26 27 27 27 28 28 27 28 29 29 30 30 30 31 31 31 31 33 34 35 36 38 39 40 41 43 44 45 46 46 47 48 48 48 47 44 43 41 40
29 28 26 26 27 27 28 28 28 29 29 30 30 30 31 32 32 32 33 33 34 34 35 36 37 38 40 41 42 43 44 45 46 48 49 49 49 49 48 46 43 42 40 39
28 28 28 28 27 28 29 29 29 30 30 31 31 32 32 33 34 34 35 35 36 37 38 39 40 41 42 43 44 45 46 47 49 49 50 50 50 49 48 45 43 41 39 38
28 28 28 28 29 29 30 31 31 31 32 32 32 33 34 34 35 36 37 37 38 39 40 41 42 43 44 45 46 47 48 49 50 51 50 50 50 49 46 44 42 40 38 36
28 29 29 30 30 30 31 32 32 33 34 34 34 35 36 36 37 38 38 39 40 41 42 42 43 44 45 47 48 49 50 51 51 51 51 50 49 48 46 43 41 39 37 35
30 30 31 32 32 33 33 34 34 35 36 36 36 37 37 38 39 40 41 41 42 43 44 45 46 47 48 49 50 51 51 52 51 51 50 49 48 47 45 42 40 38 36 34
32 33 33 34 34 34 35 35 36 36 37 37 38 39 39 40 41 42 43 44 45 46 47 48 48 49 50 51 51 52 52 52 52 51 49 48 47 45 43 41 38 36 35 33
34 35 35 36 36 36 37 37 37 38 38 39 40 41 42 42 43 44 45 47 48 49 50 50 51 51 51 52 52 51 51 51 50 49 48 47 46 43 41 39 37 35 34 32
34 35 36 37 37 38 38 39 39 40 41 41 42 43 44 45 46 47 48 49 50 51 51 51 51 52 52 52 51 51 50 50 49 48 47 45 44 41 40 38 35 33 31 29
35 36 37 38 39 39 40 41 41 42 43 44 44 45 46 46 47 48 49 50 51 51 51 51 52 52 52 51 51 51 50 49 48 47 45 43 41 39 37 35 32 30 29 28
37 38 39 39 40 41 42 42 43 44 45 45 46 47 48 48 49 49 50 51 51 51 51 51 52 52 52 51 51 50 49 48 47 45 43 40 38 36 34 31 29 27 26 25
38 39 40 40 41 42 43 44 45 46 46 47 48 48 48 49 49 50 50 51 52 52 52 52 52 52 51 51 50 49 47 46 44 42 40 37 35 33 30 29 27 25 24 23
40 41 41 42 43 44 45 46 47 47 48 48 49 49 50 50 50 51 51 52 52 52 52 52 52 51 50 49 49 47 45 44 42 39 37 34 31 30 28 26 25 23 22 21
42 42 43 44 44 45 46 46 47 47 48 48 49 49 50 50 51 51 51 51 51 51 51 51 50 49 48 47 45 44 42 40 37 34 32 30 28 27 25 24 22 21 20 19
43 43 44 45 45 45 46 47 47 48 49 49 49 49 50 50 50 50 50 50 50 49 49 49 47 46 45 43 41 39 38 35 32 30 28 26 24 23 22 20 19 18 18 18
44 44 45 45 46 46 47 47 48 48 48 48 48 48 48 48 48 48 48 47 48 47 46 45 44 43 41 38 37 35 33 30 28 26 25 23 21 19 18 18 17 17 17 16
Wind_Direction
255 267 288 287 266 265 264 265 267 271 278 286 289 296 302 305 307 309 311 312 314 316 319 320 322 323 324 325 326 326 327 328 328 329 329 328 328 328 327 327 326 325 324 323
255 262 262 266 264 262 261 263 265 270 273 275 280 290 295 299 301 305 307 310 311 313 316 318 319 320 321 322 322 323 325 325 326 327 328 327 327 327 326 326 326 326 325 324
251 250 254 257 255 258 262 260 260 261 263 270 278 284 287 292 296 301 304 307 310 313 314 315 317 318 319 319 320 322 323 323 324 325 326 327 327 326 326 326 326 325 325 324
254 246 249 251 254 258 259 260 257 259 264 270 277 284 286 289 293 297 301 304 306 310 313 314 315 317 317 318 318 319 320 321 322 323 323 325 326 326 326 326 326 325 325 324
250 248 249 249 249 252 258 256 256 260 265 271 278 284 286 290 295 299 299 300 304 309 311 312 313 315 315 317 317 317 318 320 321 322 322 324 325 325 326 327 327 325 324 324
251 249 250 254 251 251 251 255 262 267 270 274 278 283 288 294 298 301 301 301 303 306 308 310 311 314 316 316 317 316 317 319 321 322 324 324 325 325 326 326 326 326 325 324
253 252 251 253 254 254 248 251 263 267 274 278 279 284 289 294 298 299 300 301 301 303 305 307 309 311 313 315 316 316 316 317 319 320 322 324 325 325 325 325 325 325 324 325
252 250 249 252 254 255 253 259 266 271 275 278 280 285 288 291 294 297 297 298 299 300 302 303 305 308 311 314 315 315 316 317 318 319 320 322 324 324 324 324 324 324 324 325
256 255 258 253 252 256 259 265 271 273 274 277 280 284 287 289 291 294 296 297 298 300 301 302 304 306 309 311 313 315 315 316 317 318 319 320 322 323 324 324 324 324 324 325
258 258 260 260 262 266 269 273 275 275 274 277 280 281 284 288 290 291 293 295 297 299 300 302 303 304 307 309 311 313 314 315 316 317 318 319 320 321 322 322 323 324 324 325
261 263 265 265 265 268 269 270 271 273 275 277 279 281 284 286 287 289 291 293 294 296 298 301 302 303 305 308 310 311 313 314 315 317 318 319 319 319 320 321 322 323 323 323
263 266 268 268 269 269 271 269 268 270 273 274 277 280 283 284 285 287 290 292 293 294 297 299 301 302 304 306 307 310 313 313 314 315 317 318 319 319 320 321 321 321 322 322
265 267 268 269 269 269 271 271 270 272 274 276 278 280 282 284 285 287 289 291 292 293 295 297 300 302 304 306 307 309 311 312 313 314 315 316 317 317 318 319 319 320 320 320
264 266 266 268 269 270 271 272 273 274 275 277 279 281 282 283 286 288 289 290 292 294 295 297 299 301 304 305 306 308 308 310 311 313 314 314 315 316 317 317 317 318 318 317
263 265 266 267 268 269 271 272 274 276 277 279 280 282 283 284 287 288 289 291 293 294 296 298 300 301 304 305 306 307 307 308 309 310 312 313 314 314 314 315 315 316 316 315
265 266 267 268 269 270 272 274 275 277 279 280 281 283 285 286 288 289 290 292 294 294 296 298 299 301 302 303 304 305 305 306 308 308 310 310 311 312 312 312 312 313 314 314
266 267 269 270 271 272 274 276 277 279 281 282 284 285 286 287 288 289 291 292 293 295 296 297 298 299 300 301 302 303 304 304 305 306 307 308 309 309 310 310 310 310 310 311
266 269 270 272 274 275 276 278 279 281 282 284 285 286 287 288 289 290 291 292 293 294 295 297 297 298 299 300 301 301 302 303 304 305 305 306 307 307 306 307 307 307 307 307
268 270 272 274 276 277 279 280 282 283 284 285 286 287 288 289 289 290 291 292 293 294 296 297 298 298 299 299 300 300 301 301 302 302 303 303 304 304 303 303 304 304 304 305
270 272 274 276 277 279 281 282 283 284 286 287 288 289 289 290 291 291 292 293 294 295 296 297 298 298 298 299 299 300 300 300 300 300 300 300 301 301 301 300 299 300 301 301
273 274 276 277 279 281 282 283 285 286 287 288 288 289 290 291 292 293 293 294 295 296 297 297 297 298 298 299 299 299 299 299 299 298 298 298 298 298 298 297 297 297 298 299
275 276 277 278 280 281 282 283 285 287 288 289 289 290 291 292 293 294 294 295 295 296 297 297 298 298 298 298 298 298 297 297 297 297 296 295 295 295 294 293 294 294 294 295
278 278 279 279 281 282 284 285 286 288 289 290 291 291 292 293 293 294 295 296 296 297 297 297 297 298 298 297 297 296 296 296 296 295 294 293 292 290 288 288 289 290 290 292
280 280 281 282 283 284 285 286 287 288 290 291 292 292 293 293 294 295 295 296 297 297 297 297 297 297 297 297 296 295 294 294 293 292 291 289 286 285 285 284 282 282 284 286
281 281 282 283 284 285 286 288 289 290 291 292 293 293 294 295 295 296 297 297 297 298 298 298 298 298 298 297 296 294 294 293 292 290 287 283 281 279 278 278 276 276 277 279
282 283 283 284 285 286 288 289 290 291 292 293 293 294 295 295 296 297 297 298 298 299 299 299 299 298 298 297 295 294 294 293 290 287 282 279 276 274 273 270 270 272 274 276
283 284 284 285 286 287 289 290 291 292 292 293 293 294 295 296 296 297 297 298 299 299 299 299 299 299 297 295 294 294 292 290 289 283 277 274 271 266 264 264 266 268 272 270
Height
5844 5844 5843 5844 5846 5848 5849 5849 5849 5848 5846 5844 5844 5843 5842 5841 5840 5839 5838 5836 5835 5833 5831 5830 5828 5826 5823 5821 5818 5816 5813 5809 5806 5802 5798 5793 5789 5784 5779 5774 5768 5763 5757 5750
5841 5842 5842 5843 5844 5846 5846 5846 5846 5846 5845 5842 5841 5841 5840 5839 5838 5836 5835 5833 5832 5830 5829 5827 5825 5823 5820 5818 5815 5812 5809 5805 5801 5797 5793 5788 5784 5778 5773 5767 5761 5755 5749 5742
5837 5838 5838 5840 5841 5842 5842 5842 5843 5842 5841 5839 5838 5838 5837 5836 5835 5833 5832 5830 5829 5827 5826 5824 5821 5819 5817 5814 5811 5808 5804 5800 5796 5792 5787 5783 5777 5772 5766 5760 5754 5748 5741 5734
5833 5835 5835 5838 5837 5838 5838 5838 5838 5837 5836 5836 5835 5834 5833 5833 5832 5830 5828 5827 5825 5823 5822 5820 5818 5815 5812 5809 5806 5803 5799 5795 5791 5787 5782 5777 5771 5765 5759 5753 5746 5740 5733 5726
5829 5829 5831 5832 5831 5832 5832 5833 5833 5833 5832 5831 5831 5830 5829 5828 5827 5826 5825 5822 5821 5819 5817 5815 5813 5811 5808 5804 5801 5798 5794 5790 5786 5781 5776 5770 5764 5758 5752 5745 5739 5732 5725 5717
5824 5825 5826 5826 5825 5826 5828 5827 5827 5827 5827 5827 5827 5826 5825 5823 5822 5821 5820 5818 5816 5815 5813 5811 5808 5805 5802 5799 5796 5792 5788 5784 5779 5774 5769 5763 5757 5751 5744 5737 5730 5723 5716 5709
5820 5820 5820 5820 5821 5822 5823 5823 5822 5822 5822 5822 5822 5821 5820 5818 5817 5816 5815 5813 5811 5809 5807 5805 5802 5800 5797 5793 5790 5786 5782 5777 5772 5767 5762 5756 5750 5743 5736 5729 5722 5715 5708 5701
5814 5815 5817 5814 5815 5816 5814 5815 5817 5817 5817 5816 5816 5815 5815 5813 5812 5811 5809 5807 5805 5804 5801 5799 5796 5793 5790 5787 5783 5779 5774 5770 5765 5760 5754 5748 5742 5735 5728 5721 5714 5707 5700 5693
5807 5809 5808 5807 5806 5808 5808 5810 5811 5812 5812 5811 5810 5810 5809 5807 5806 5805 5803 5801 5799 5797 5795 5792 5790 5786 5783 5780 5776 5771 5767 5762 5757 5751 5746 5739 5733 5726 5719 5712 5705 5698 5691 5684
5800 5800 5801 5800 5800 5801 5804 5806 5806 5805 5805 5805 5803 5803 5802 5801 5799 5798 5796 5794 5792 5790 5788 5785 5782 5779 5776 5772 5768 5763 5759 5754 5749 5743 5737 5731 5724 5718 5710 5703 5696 5689 5682 5676
5795 5794 5794 5795 5796 5797 5798 5799 5799 5798 5798 5798 5797 5796 5795 5794 5793 5791 5789 5787 5785 5782 5780 5777 5774 5771 5767 5763 5759 5755 5750 5745 5740 5734 5728 5722 5716 5709 5702 5695 5687 5681 5674 5668
5788 5789 5790 5789 5789 5790 5790 5791 5791 5791 5791 5790 5790 5789 5787 5786 5785 5783 5781 5779 5777 5774 5771 5769 5765 5762 5758 5754 5750 5746 5741 5736 5730 5724 5718 5712 5706 5700 5693 5686 5680 5673 5666 5660
5782 5782 5782 5783 5783 5784 5784 5784 5783 5783 5783 5782 5782 5781 5779 5777 5776 5774 5772 5771 5768 5765 5762 5759 5756 5752 5749 5745 5741 5736 5731 5726 5720 5714 5708 5702 5696 5690 5684 5677 5671 5665 5659 5653
5775 5775 5776 5776 5777 5776 5776 5775 5775 5775 5774 5774 5773 5772 5771 5769 5767 5766 5764 5761 5759 5756 5753 5749 5746 5742 5739 5735 5730 5726 5721 5715 5710 5704 5699 5692 5686 5680 5674 5668 5662 5657 5651 5645
5768 5768 5769 5769 5769 5769 5768 5767 5767 5766 5766 5765 5765 5763 5762 5760 5758 5756 5754 5752 5749 5746 5743 5739 5736 5732 5728 5724 5719 5715 5710 5705 5699 5693 5688 5682 5676 5670 5664 5658 5653 5648 5643 5637
5760 5760 5761 5761 5761 5761 5760 5759 5759 5758 5757 5756 5755 5754 5752 5751 5749 5746 5744 5741 5739 5735 5732 5729 5725 5721 5717 5713 5708 5703 5698 5693 5688 5682 5676 5671 5665 5659 5654 5649 5644 5639 5634 5629
5752 5752 5753 5753 5753 5752 5751 5751 5750 5749 5748 5747 5745 5744 5742 5740 5738 5735 5733 5730 5727 5724 5721 5717 5714 5709 5705 5701 5696 5691 5686 5681 5676 5670 5665 5659 5654 5649 5644 5639 5634 5630 5626 5621
5744 5744 5744 5744 5743 5743 5742 5741 5741 5740 5738 5737 5735 5733 5731 5729 5727 5724 5721 5718 5715 5712 5708 5705 5701 5697 5692 5688 5683 5678 5673 5668 5663 5658 5653 5648 5643 5638 5633 5629 5625 5621 5617 5613
5735 5735 5735 5734 5734 5733 5732 5731 5730 5729 5727 5726 5724 5722 5719 5717 5715 5712 5709 5706 5702 5699 5695 5691 5687 5682 5678 5674 5669 5664 5659 5655 5650 5645 5640 5636 5631 5627 5623 5619 5615 5612 5609 5605
5726 5726 5725 5725 5724 5723 5722 5721 5719 5718 5716 5714 5712 5710 5707 5705 5702 5699 5696 5692 5688 5685 5681 5677 5672 5668 5664 5659 5655 5650 5645 5641 5636 5632 5628 5624 5620 5616 5612 5609 5606 5603 5600 5597
5717 5716 5715 5714 5713 5712 5711 5709 5708 5706 5704 5702 5699 5697 5694 5691 5688 5685 5682 5678 5674 5671 5667 5662 5657 5653 5649 5645 5640 5635 5631 5627 5623 5619 5615 5611 5608 5605 5602 5599 5596 5594 5591 5589
5707 5706 5705 5704 5702 5701 5699 5697 5695 5693 5691 5689 5686 5683 5681 5678 5674 5670 5667 5663 5659 5656 5652 5647 5642 5638 5634 5629 5625 5620 5616 5612 5608 5605 5602 5599 5596 5594 5591 5589 5587 5585 5583 5581
5696 5695 5694 5692 5691 5689 5687 5685 5683 5680 5678 5675 5672 5669 5666 5663 5660 5656 5652 5648 5644 5640 5636 5631 5627 5622 5618 5613 5609 5605 5601 5598 5594 5591 5589 5586 5584 5583 5581 5580 5578 5577 5576 5574
5684 5683 5681 5680 5678 5676 5674 5672 5669 5667 5664 5661 5658 5655 5652 5648 5645 5641 5637 5633 5628 5624 5620 5616 5611 5607 5602 5598 5594 5590 5587 5584 5581 5578 5576 5574 5573 5572 5571 5571 5570 5569 5569 5568
5672 5670 5669 5667 5665 5663 5660 5658 5655 5653 5650 5647 5643 5640 5636 5632 5629 5625 5621 5617 5613 5608 5604 5600 5595 5591 5587 5583 5579 5576 5573 5570 5568 5566 5564 5563 5562 5562 5562 5562 5562 5562 5562 5562
5659 5657 5655 5653 5651 5649 5647 5644 5641 5638 5635 5632 5629 5625 5621 5617 5614 5610 5606 5602 5598 5593 5589 5584 5580 5576 5572 5569 5565 5562 5560 5558 5556 5554 5553 5553 5553 5553 5554 5555 5555 5555 5555 5555
5645 5644 5641 5639 5637 5635 5633 5630 5627 5624 5621 5617 5614 5610 5607 5603 5599 5595 5591 5587 5583 5579 5575 5570 5566 5563 5559 5556 5553 5550 5548 5547 5546 5545 5544 5544 5545 5546 5546 5548 5549 5549 5550 5550